Погода в Казацком

Украина / Одесская область     47°59′32″N   29°40′25″E
темп.,
°C
ветер,
м/с
пор.,
м/с
влажн.,
%
обл.,
%
осадки,
мм/ч
давл.,
гПа
погр.,
м
21 января, пт
пт2123:00−2зюз2397100 0.4 101063
02:00−2зюз4108399 0.4 1010253
05:00−2зсз71376100 0.1 1010733
08:00−4з714815 0.1 1012626
11:00−2з812725 0.0 10131060
14:00−1з813645 0.0 10121125
17:00−3з7136998 0.0 1012683
20:00−3з71376100 0.0 1012774
22 января, сб
сб2223:00−4з7148163 0.0 1013661
02:00−4з7138488 0.0 1012655
05:00−4з6139086 0.0 1012566
08:00−5з5119197 0.0 1013456
11:00−3з6876100 0.0 1014752
14:00−2зсз6866100 0.1 10131171
17:00−4з4879100 0.0 1014228
20:00−4з4109369 0.0 1015346
23 января, вс
вс2323:00−5сз599178 0.0 1017339
02:00−6сз499276 0.0 1018387
05:00−6сз379580 0.2 1018320
08:00−7сз2596100 0.2 101994
11:00−4ссв3487100 0.1 1021492
14:00−3ссв4671100 0.3 1022864
17:00−5ссв5981100 0.1 1024570
20:00−6ссв598861 0.1 1027444
24 января, пн
пн2423:00−7ссв5992100 0.0 1028467
02:00−8с599299 0.1 1029312
05:00−8ссз61191100 0.0 1029383
08:00−8ссз61388100 0.0 1030458
11:00−6ссз71279100 0.0 1030573
14:00−5с71290100 0.4 1028827
17:00−6с61194100 0.8 1029783
20:00−6с61192100 1.2 1030607
25 января, вт
вт2523:00−7с61093100 0.1 1030481
02:00−7с51093100 0.4 1030425
05:00−8ссз51091100 0.2 1029400
08:00−8ссз51092100 0.2 1029351
11:00−6ссз5884100 0.0 1029417
14:00−5ссз4676100 0.0 1027527
17:00−6зсз2286100 0.0 102642
20:00−8зсз2292100 0.0 102631